Location: Newark
(25.0000°N, 73.5000°E)
Time: 12:47:52
(UTC+00:00)

RS-15 - Pass Details

Date: 26 February 2020
Orbit: 1898 x 2146 km, 64.8° (Epoch: 06 April)

Event Time Altitude Azimuth Distance (km) Brightness Sun altitude
Rises 15:19:12 0° 236° (SW) 5,377 11.0 -30.9°
Reaches altitude 10° 15:23:06 10° 246° (WSW) 4,350 10.5 -31.7°
Maximum altitude 15:32:32 32° 305° (NW) 2,914 9.3 -33.9°
Drops below altitude 10° 15:41:55 10° 6° (N) 4,286 9.8 -36.0°
Sets 15:45:48 0° 16° (NNE) 5,289 10.2 -36.9°
